STARLINK-3811, 52383

Orbit data source: Space-Track

STARLINK-3811, 52383 is a payload satellite owned by SpaceX/Seattle (US) in LEO that was launched on Fri, 29 Apr 2022 UTC via an FALCON 9 launch vehicle from the Air Force Eastern Test Range (AFETR). Payload-class satellites include a variety of spacecraft equipped with specific instruments for various scientific and technological missions. These include communications satellites like Starlink; space stations such as the ISS; scientific satellites like the Hubble; Earth observation satellites from companies like Planet Labs, Umbra, and HawkEye 360; GPS; miniature CubeSats for education and research; and military/defense satellites.

Loading next visibility...
Identifier
52383, 2022-045BE
Orbit
LEO
Country
Flag of USUS
Related business
Manufacturer
SpaceX/Seattle
Mission
Operational Commercial Communications
Bus & Motor
STARLINK, Unknown motor
Mass
297 kg wet, ~275 kg dry
Launch date (UTC)
2022-04-29 (4 years ago)
Launch vehicle
FALCON 9
Launch site
Air Force Eastern Test Range (AFETR)
Object type
Payload
Rocket body
Debris
Shape & HBR
Box + 1 Pan, 10.1 m
Radar Cross Section
11.087 m², Large (>1 m²)

Expand to show TLE details & history
Last TLE update: 7 hours ago

TLE from 7 hours ago
0 STARLINK-3811
1 52383U 22045BE  26119.82443441  .00003195  00000-0  21880-3 0  9993
2 52383  53.2190 309.5982 0001303  96.0810 264.0331 15.08824851223783
Epoch: 2026-04-29T19:47Z
TLE epoch observation values (Epoch: 2026-04-29T19:47:11.133Z)
Latitude
0.00003°
Longitude
155.02198°
Altitude
540.781 km
Speed
7.593 km/s
True Right ascension
20h 38m 23s
True Declination
0° 00' 00"
Sunlit
Object was in daylight at epoch
Visualization orbit readout
Latitude
Unknown
Longitude
Unknown
Altitude
Unknown
Speed
Unknown
Apparent Right ascension
Unknown
Apparent Declination
Unknown
Sunlit
N/A
Visualization observer readout
Local Sidereal Time
10:28:26
Azimuth
Unknown
Elevation
Unknown
Doppler factor
Unknown
Orbital elements
Apogee altitude
540.936 km
Perigee altitude
539.133 km
Semi-major axis
6,918.171 km
Eccentricity
0.00013
Inclination
53.219°
RAAN
309.5982°
Arg. of periapsis
96.081°
True anomaly
264.01825°
Mean anomaly
264.0331°
Eccentric anomaly
264.02567°
Mean motion
3.77187 °/min
Orbital period
95.44 mins
BSTAR
0.0002188
Loading maneuver chart data...
Computing Atmospheric mass density...
Loading historical data...
Loading historical data...
Loading historical data...
Loading historical data...
Loading historical data...
Loading historical data...
Loading historical data...

Documentation

Showing up to 5 results
|